Location: Bruneau Dunes Observatory
(42.9024°N, 115.6902°W)
Time: 20:01:28
(UTC-06:00)

Daily predictions for brighter satellites

Satellite Brightness Start Highest point End
(mag) Time Altitude Azimuth Time Altitude Azimuth Time Altitude Azimuth
Cosmos 1470 3.8 19:20:35 10° SSW 19:24:29 52° W 19:28:24 10° N
Cosmos 2322 Rocket 2.2 19:19:46 10° NNW 19:25:23 72° ENE 19:30:59 10° SSE
Lacrosse 5 rocket 2.8 19:23:14 10° WSW 19:27:27 36° NW 19:31:28 10° NE
Cosmos 1408 Rocket 3.6 19:24:33 10° N 19:29:00 80° E 19:33:27 10° S
EO 1 Del DPAF 3.4 19:25:16 10° NNE 19:29:04 54° E 19:32:50 10° S
CZ-4 R/B 4.4 19:26:06 10° SSE 19:30:13 70° ENE 19:34:21 10° N
BREEZE-M DEB (TANK) 3.7 19:28:50 10° WNW 19:32:30 59° NNE 19:45:24 10° ESE
Meteor 1-11 4.3 19:27:05 10° N 19:32:49 60° ENE 19:38:28 10° SSE
Cosmos 1328 3.7 19:28:51 10° N 19:32:51 74° E 19:36:47 10° SSE
Cosmos 1452 Rocket 4.4 19:28:22 10° N 19:32:56 29° ENE 19:37:28 10° ESE
Aureole 1 Rocket 3.8 19:26:46 10° S 19:33:33 68° ESE 19:38:42 10° NNE
Cosmos 2218 Rocket 4.0 19:27:38 10° S 19:33:40 62° E 19:39:44 10° NNE
Meteor 2-15 Rocket 4.4 19:30:49 10° N 19:36:56 80° E 19:43:02 10° S
MONITOR-E 4.2 19:34:35 10° SSE 19:37:35 53° ENE 19:40:37 10° N
ATLAS 5 CENTAUR R/B 4.5 19:36:15 10° NW 19:37:53 11° NNW 19:39:35 10° N
DELTA 2 R/B (1) 3.9 19:35:58 10° WSW 19:41:28 63° S 19:46:42 12° E
Atlas Centaur 2 3.7 19:38:19 10° SW 19:41:55 20° S 19:46:08 10° SE
USA 267 4.2 19:37:44 10° ENE 19:43:04 26° SE 19:48:23 10° S
Cosmos 1484 Rocket 4.4 19:40:41 10° SSW 19:44:10 37° W 19:47:39 10° NNW
Cosmos 1727 Rocket 4.1 19:38:11 10° N 19:44:28 57° E 19:50:41 10° SSE
Cosmos 2322 4.3 19:39:22 10° N 19:44:39 36° ENE 19:49:53 10° ESE
YAOGAN 1 2.9 19:42:09 10° S 19:46:27 70° WSW 19:50:46 10° NNW
Meteor 1-16 Rocket 4.2 19:42:54 10° S 19:48:12 85° W 19:53:35 10° N
Abrixas rocket 2.4 19:45:10 10° WSW 19:48:26 65° NNW 19:51:14 13° ENE
Gbstr 26 Del rocket 4.5 19:44:03 10° NW 19:48:28 34° NNE 19:53:04 13° ENE
ALOS 2.5 19:44:45 10° SE 19:49:14 49° ENE 19:53:45 10° N
SKYMED 3 4.5 19:46:13 10° NNE 19:50:35 77° ESE 19:54:55 10° S
Cosmos 1703 3.4 19:47:02 10° N 19:50:52 48° ENE 19:54:39 10° SSE
GP-B 3.0 19:46:40 10° N 19:51:08 77° E 19:55:33 10° S
CZ-4 R/B 3.1 19:48:50 10° SSW 19:52:48 40° W 19:56:46 10° NNW
FENGYUN 3A 3.7 19:51:34 10° SSE 19:56:50 59° ENE 20:02:10 10° N
CZ-4C R/B 3.6 19:54:50 10° SE 19:57:33 14° ESE 19:57:35 14° ESE
Tiangong 1 3.1 19:55:46 10° WSW 19:57:48 19° SSW 19:59:50 10° SSE
Cosmos 1400 Rocket 2.7 19:56:17 10° N 20:00:22 79° E 20:04:22 10° SSE
Cosmos-2242 4.3 19:59:08 10° SSW 20:03:12 43° WNW 20:07:17 10° N
SL-08 R/B 4.5 19:57:04 10° S 20:03:16 88° E 20:09:26 10° N
GRACE-2 3.6 20:04:17 10° SSE 20:06:50 60° E 20:09:23 10° N
SKYMED 2 3.9 20:04:15 10° N 20:08:34 68° WNW 20:12:53 10° SSW
GRACE-1 3.5 20:06:08 10° S 20:08:41 67° E 20:11:16 10° N
Cosmos 2219 Rocket 3.4 20:05:08 10° N 20:09:24 22° NE 20:11:02 19° ENE
Thor Agena Rocket 3.7 20:07:29 10° NNE 20:12:28 49° E 20:17:21 10° S
Cosmos 1908 3.4 20:10:15 10° SSE 20:14:02 48° E 20:17:49 10° NNE
Cosmos 1743 Rocket 4.0 20:11:14 10° NNW 20:15:35 66° W 20:19:57 10° S
Cosmos 2151 3.1 20:13:44 10° N 20:18:02 80° W 20:22:17 10° S
SL-16 R/B 3.5 20:13:36 10° NW 20:18:55 42° WSW 20:24:12 10° S
USA 234 4.2 20:15:23 17° ENE 20:19:22 32° NNE 20:25:02 10° NW
Cosmos 1420 Rocket 4.1 20:15:14 10° NNW 20:20:27 53° ENE 20:24:47 15° SE
Cosmos 2237 4.3 20:14:52 10° NNW 20:20:31 56° ENE 20:25:03 16° SE
Iridium 4 Rocket 3.7 20:15:47 10° SSE 20:21:02 55° E 20:26:41 10° N
H-2A R/B 2.9 20:18:13 11° SSE 20:21:46 51° ENE 20:25:34 10° N
Cosmos 1842 Rocket 4.0 20:19:13 10° SSW 20:23:39 67° W 20:28:07 10° N
GENESIS II 4.3 20:21:30 10° SSW 20:25:22 53° ESE 20:26:52 32° ENE
Envisat 4.0 20:26:29 25° ENE 20:26:30 25° ENE 20:30:34 10° NNE
Resurs 01 Rocket 2.9 20:27:35 23° NE 20:27:35 23° NE 20:30:21 10° NNE
Cosmos 44 4.3 20:23:54 10° S 20:26:23 23° SE 20:26:23 23° SE
ISS -0.7 20:27:40 10° WSW 20:29:00 12° SW 20:30:19 10° SSW
FREGAT/IRIS 2.4 20:28:23 40° SSE 20:29:18 74° ENE 20:32:19 10° N
Cosmos 2221 2.4 20:30:33 10° S 20:34:50 72° E 20:39:10 10° NNE
CZ-2D R/B 4.4 20:37:04 28° NE 20:37:04 28° NE 20:39:28 10° N
Cosmos 2237 Rocket 3.6 20:33:24 10° N 20:37:30 21° NE 20:37:30 21° NE
Cosmos 44 Rocket 4.0 20:34:07 10° S 20:37:30 31° SE 20:37:30 31° SE
Cosmos 1315 Rocket 3.1 20:37:20 10° NNW 20:41:23 70° W 20:45:27 10° S
HJ-1C 3.5 20:43:41 60° NNE 20:43:41 60° NNE 20:46:41 10° N
Cosmos 921 Rocket 3.2 20:40:43 10° NNW 20:45:11 76° WSW 20:48:43 16° S
SL-16 R/B 4.3 20:43:21 10° NNE 20:44:36 11° NNE 20:44:36 11° NNE
CSL-04 DEB 4.3 20:44:56 39° SSE 20:46:22 74° ENE 20:50:27 10° N
Cosmos 158 Rocket 3.8 20:43:43 10° S 20:48:42 72° ESE 20:53:51 10° NNE
Cosmos 1535 Rocket 4.3 20:43:27 10° S 20:49:31 65° E 20:55:33 10° NNE
Cosmos 1269 Rocket 3.9 20:50:42 10° S 20:55:52 60° ESE 20:57:37 39° NE
COSMOS 2428 2.6 20:50:54 10° NNW 20:56:36 72° ENE 20:58:23 44° SE
RESURS DK-1 3.2 20:52:50 10° NW 20:56:50 48° WSW 20:59:04 23° S
Cosmos 2333 Rocket 2.6 20:54:43 10° NNW 21:00:03 42° NE 21:00:03 42° NE
Cosmos 2098 Rocket 3.2 20:58:22 10° S 21:02:29 83° W 21:07:49 10° N
Cosmos 2360 Rocket 3.2 20:57:44 10° NW 21:03:07 46° WSW 21:08:29 10° S
SJ-6B 3.3 21:06:33 46° SW 21:07:12 54° W 21:10:53 10° NNW
Lacrosse 5 rocket 3.9 21:05:24 10° NW 21:07:43 14° NNW 21:09:05 12° N
Cosmos 2219 3.1 21:03:05 10° SSW 21:08:47 68° ESE 21:09:45 57° ENE
SL-8 R/B 3.6 21:07:30 10° WSW 21:12:20 80° NNW 21:12:26 79° N
Sich 1 3.8 21:09:08 10° N 21:12:08 44° N 21:12:08 44° N
Cosmos 1805 Rocket 4.0 21:11:45 10° NNW 21:16:05 59° W 21:16:56 49° SW
NOSS 0 Rocket 4.1 21:10:50 10° NNW 21:16:35 52° NE 21:16:35 52° NE
MOS 1-B Rocket 3.7 21:16:03 49° SSE 21:17:42 89° ENE 21:23:41 10° NNW
BREEZE-M DEB (TANK) 3.0 21:11:03 10° W 21:19:03 62° N 21:19:04 62° N
Cosmos 1821 Rocket 4.3 21:15:19 10° SSW 21:21:24 65° W 21:27:36 10° N
CZ-3A R/B 4.2 21:01:36 10° WNW 21:24:43 57° NNE 21:27:05 44° ENE
USA 267 3.2 21:24:25 47° NE 21:26:34 87° NW 21:33:06 10° SW
DELTA 2 R/B (1) 4.1 21:22:15 10° W 21:27:28 49° SSW 21:27:28 49° SSW
Atlas Centaur 2 3.9 21:25:54 10° SW 21:29:50 22° S 21:29:50 22° S
Cosmos 1934 Rocket 4.1 21:24:12 10° SSW 21:30:31 74° W 21:36:55 10° N
Spot 2 Rocket 3.9 21:31:47 53° NNW 21:31:47 53° NNW 21:35:40 10° NNW
Gbstr 26 Del rocket 3.8 21:30:44 10° NW 21:35:37 70° NNW 21:35:37 70° NNW
CZ-4C R/B 3.1 21:39:47 10° SW 21:42:52 38° SW 21:42:52 38° SW
Cosmos 2123 Rocket 4.4 21:42:24 10° NNW 21:48:31 59° W 21:50:17 44° SSW
Cosmos 2219 Rocket 2.8 21:48:18 10° NNW 21:52:46 53° WNW 21:52:46 53° WNW
Cosmos 1605 Rocket 4.5 21:56:46 53° NNW 21:56:46 53° NNW 22:01:31 10° N
USA 234 3.5 22:02:44 61° NNW 22:02:44 61° NNW 22:08:16 10° NW
Resurs 01 Rocket 3.9 22:05:10 22° NW 22:05:10 22° NW 22:07:07 10° NNW
Envisat 4.5 22:06:42 34° WNW 22:06:42 34° WNW 22:10:06 10° NNW
Cosmos 2237 Rocket 3.8 22:16:33 10° NNW 22:19:20 30° NW 22:19:20 30° NW
SL-16 R/B 4.4 22:25:01 10° NNW 22:26:29 18° NNW 22:26:29 18° NNW
Cosmos 2333 Rocket 4.3 22:39:19 10° NW 22:42:05 23° WNW 22:42:05 23° WNW
